Tracking 20623 objects as of 4-Apr-2020
HD Live streaming from Space Station
objects crossing your sky now

COSMOS 970 DEB

Track COSMOS 970 DEB now!
10-day predictions


NORAD ID: 10576
Int'l Code: 1977-121T
Perigee: 916.2 km
Apogee: 1,126.5 km
Inclination: 65.8 °
Period: 105.4 minutes
Semi major axis: 7392 km
RCS: 0.1037 m2 (medium)
Launch date: December 21, 1977
Source: Commonwealth of Independent States (former USSR) (CIS)
Launch site: TYURATAM MISSILE AND SPACE COMPLEX (TTMTR)

Note: This is SATELLITE DEBRIS
aabbcc
Your satellite tracking list
Your tracking list is empty




NASA's NSSDC Master Catalog

Two Line Element Set (TLE):
1 10576U 77121T   20094.87312596 +.00000051 +00000-0 +14750-3 0  9999
2 10576 065.8375 303.2752 0142210 206.1079 167.0486 13.65934607105419
Source of the keplerian elements: AFSPC